CW2969 Weather Reports


Display with metric or nautical units.
time (UTC)temp
F
wind
direction
speed
MPH
gust
MPH
rain 1hr
in
rain 24hr
in
rain mn
in
humidity
%
barometer
mb
20260503232526 78 144 2.0 6.0 0.00 0.00 0.00 39 1016.2
20260503232026 79 205 1.0 6.0 0.00 0.00 0.00 39 1016.3
20260503231526 79 150 1.0 7.0 0.00 0.00 0.00 38 1016.3
20260503230526 79 186 3.0 4.0 0.00 0.00 0.00 38 1016.0
20260503230026 79 163 2.0 4.0 0.00 0.00 0.00 38 1016.1
20260503225526 79 137 4.0 4.0 0.00 0.00 0.00 38 1016.2
20260503225026 80 178 2.0 4.0 0.00 0.00 0.00 37 1016.2
20260503224526 80 244 2.0 6.0 0.00 0.00 0.00 37 1016.3
20260503224026 80 121 5.0 6.0 0.00 0.00 0.00 37 1016.4
20260503223526 81 145 3.0 5.0 0.00 0.00 0.00 37 1016.5
20260503223026 81 318 1.0 4.0 0.00 0.00 0.00 38 1016.7
20260503222526 81 227 2.0 3.0 0.00 0.00 0.00 37 1016.7
20260503222026 81 155 2.0 8.0 0.00 0.00 0.00 37 1016.7
20260503221526 80 166 3.0 11.0 0.00 0.00 0.00 37 1016.7
20260503221026 80 140 5.0 11.0 0.00 0.00 0.00 37 1016.9
20260503220526 80 132 5.0 8.0 0.00 0.00 0.00 37 1016.9
20260503215526 80 134 4.0 8.0 0.00 0.00 0.00 36 1017.1
20260503215026 80 112 3.0 5.0 0.00 0.00 0.00 37 1017.1
20260503214525 80 217 1.0 9.0 0.00 0.00 0.00 37 1017.1
20260503214026 81 135 8.0 9.0 0.00 0.00 0.00 37 1017.2
20260503213525 81 304 1.0 5.0 0.00 0.00 0.00 37 1017.3
20260503213025 81 109 4.0 10.0 0.00 0.00 0.00 37 1017.4
20260503212525 81 119 2.0 10.0 0.00 0.00 0.00 37 1017.5
20260503212025 81 192 3.0 8.0 0.00 0.00 0.00 37 1017.6
20260503211525 80 240 1.0 4.0 0.00 0.00 0.00 38 1017.8
20260503211025 80 190 2.0 9.0 0.00 0.00 0.00 37 1017.8
20260503210525 80 109 2.0 11.0 0.00 0.00 0.00 37 1017.9
20260503205526 80 195 2.0 10.0 0.00 0.00 0.00 37 1018.2
20260503205025 80 101 7.0 8.0 0.00 0.00 0.00 38 1018.3
20260503204525 80 134 8.0 8.0 0.00 0.00 0.00 37 1018.2
20260503204025 80 158 2.0 9.0 0.00 0.00 0.00 38 1018.4
20260503203525 80 207 2.0 9.0 0.00 0.00 0.00 38 1018.5
20260503203025 80 331 2.0 11.0 0.00 0.00 0.00 38 1018.7
20260503202525 80 140 3.0 11.0 0.00 0.00 0.00 39 1018.7
20260503202025 81 165 5.0 6.0 0.00 0.00 0.00 39 1018.7
20260503201025 80 248 4.0 8.0 0.00 0.00 0.00 39 1018.7
20260503200525 80 295 2.0 11.0 0.00 0.00 0.00 39 1018.9
20260503200025 80 188 3.0 11.0 0.00 0.00 0.00 39 1019.1
20260503194525 79 207 2.0 9.0 0.00 0.00 0.00 39 1019.2
20260503194024 79 202 1.0 11.0 0.00 0.00 0.00 41 1019.3
20260503193024 79 136 4.0 7.0 0.00 0.00 0.00 41 1019.4
20260503192524 79 115 2.0 6.0 0.00 0.00 0.00 40 1019.4
20260503192025 79 117 2.0 6.0 0.00 0.00 0.00 41 1019.5
20260503191524 79 290 0.0 13.0 0.00 0.00 0.00 42 1019.5
20260503191024 79 165 10.0 13.0 0.00 0.00 0.00 41 1019.6
20260503190524 79 143 1.0 17.0 0.00 0.00 0.00 42 1019.7
20260503185525 79 87 2.0 5.0 0.00 0.00 0.00 42 1019.9
20260503185024 79 254 1.0 7.0 0.00 0.00 0.00 42 1020.0
20260503184024 78 159 2.0 8.0 0.00 0.00 0.00 43 1020.1
20260503183524 79 200 6.0 8.0 0.00 0.00 0.00 44 1020.2
20260503183024 79 196 3.0 8.0 0.00 0.00 0.00 44 1020.3
20260503182524 79 153 4.0 8.0 0.00 0.00 0.00 45 1020.5
20260503181024 78 103 6.0 8.0 0.00 0.00 0.00 45 1020.7
20260503180524 78 319 3.0 11.0 0.00 0.00 0.00 45 1020.8
20260503180024 78 130 4.0 11.0 0.00 0.00 0.00 45 1020.9
20260503175524 78 195 3.0 10.0 0.00 0.00 0.00 46 1021.0
20260503174523 77 327 4.0 6.0 0.00 0.00 0.00 47 1021.0
20260503174023 77 152 4.0 8.0 0.00 0.00 0.00 46 1021.2
20260503173523 78 149 4.0 8.0 0.00 0.00 0.00 47 1021.3
20260503173023 77 98 2.0 9.0 0.00 0.00 0.00 49 1021.3
20260503172523 77 186 3.0 9.0 0.00 0.00 0.00 49 1021.4
20260503172023 77 118 4.0 8.0 0.00 0.00 0.00 50 1021.4
20260503171523 77 217 2.0 9.0 0.00 0.00 0.00 50 1021.5
20260503171023 76 230 2.0 9.0 0.00 0.00 0.00 51 1021.6
20260503170523 76 128 7.0 9.0 0.00 0.00 0.00 50 1021.6
20260503131020 57 101 0.0 0.0 0.00 0.00 0.00 83 1021.4
20260503130520 56 101 0.0 0.0 0.00 0.00 0.00 83 1021.4
20260503110519 50 101 0.0 0.0 0.00 0.00 0.00 83 1020.7
20260503081518 52 101 0.0 0.0 0.00 0.00 0.00 82 1020.3
20260503081017 52 101 0.0 0.0 0.00 0.00 0.00 82 1020.3
20260503080518 52 101 0.0 0.0 0.00 0.00 0.00 82 1020.3
20260503072517 53 101 0.0 0.0 0.00 0.00 0.00 82 1020.6
20260503072018 53 101 0.0 0.0 0.00 0.00 0.00 81 1020.6
20260503071517 53 101 0.0 0.0 0.00 0.00 0.00 81 1020.6
20260503071017 53 101 0.0 0.0 0.00 0.00 0.00 81 1020.6
20260503070517 53 101 0.0 0.0 0.00 0.00 0.00 81 1020.6
20260503055016 54 101 0.0 0.0 0.00 0.00 0.00 79 1020.7
20260503054516 54 101 0.0 0.0 0.00 0.00 0.00 79 1020.8
20260503054017 54 101 0.0 0.0 0.00 0.00 0.00 79 1020.7
20260503053517 55 101 0.0 0.0 0.00 0.00 0.00 79 1020.7
20260503053016 55 101 0.0 0.0 0.00 0.00 0.00 79 1020.7
20260503052516 55 101 0.0 0.0 0.00 0.00 0.00 78 1020.7
20260503052016 55 101 0.0 0.0 0.00 0.00 0.00 78 1020.7
20260503051016 55 101 0.0 0.0 0.00 0.00 0.00 78 1020.7
20260503050516 55 101 0.0 0.0 0.00 0.00 0.00 78 1020.8
20260503050015 55 101 0.0 0.0 0.00 0.00 0.00 78 1020.8
20260503045515 55 101 0.0 0.0 0.00 0.00 0.00 77 1020.7
20260503044515 56 101 0.0 0.0 0.00 0.00 0.00 77 1020.7
20260503044015 56 101 0.0 0.0 0.00 0.00 0.00 77 1020.9
20260503043515 56 101 0.0 0.0 0.00 0.00 0.00 76 1020.7
20260503043016 56 101 0.0 0.0 0.00 0.00 0.00 76 1020.8
20260503042515 56 101 0.0 0.0 0.00 0.00 0.00 75 1020.7
20260503041515 56 101 0.0 0.0 0.00 0.00 0.00 75 1020.5
20260503041016 56 101 0.0 0.0 0.00 0.00 0.00 74 1020.4
20260503040516 57 101 0.0 0.0 0.00 0.00 0.00 74 1020.5
20260503040015 57 101 0.0 0.0 0.00 0.00 0.00 74 1020.5
20260503035515 57 101 0.0 0.0 0.00 0.00 0.00 73 1020.4
20260503034515 57 101 0.0 0.0 0.00 0.00 0.00 72 1020.3
20260503034015 58 101 0.0 0.0 0.00 0.00 0.00 72 1020.4
20260503033515 58 101 0.0 0.0 0.00 0.00 0.00 72 1020.3
20260503032515 58 101 0.0 0.0 0.00 0.00 0.00 71 1020.2
20260503032015 59 101 0.0 0.0 0.00 0.00 0.00 71 1020.2
20260503031515 59 101 0.0 0.0 0.00 0.00 0.00 70 1020.1
20260503031015 59 101 0.0 0.0 0.00 0.00 0.00 69 1020.0
20260503030514 59 101 0.0 0.0 0.00 0.00 0.00 69 1020.0
20260503030015 60 101 0.0 0.0 0.00 0.00 0.00 69 1020.0
20260503025515 60 101 0.0 0.0 0.00 0.00 0.00 68 1019.8
20260503025014 60 101 0.0 0.0 0.00 0.00 0.00 68 1019.8
20260503024514 60 101 0.0 0.0 0.00 0.00 0.00 67 1019.8
20260503024014 61 101 0.0 0.0 0.00 0.00 0.00 67 1019.7
20260503023514 61 101 0.0 0.0 0.00 0.00 0.00 66 1019.5
20260503023014 61 101 0.0 0.0 0.00 0.00 0.00 66 1019.4
20260503022514 62 101 0.0 0.0 0.00 0.00 0.00 66 1019.3
20260503022014 62 101 0.0 0.0 0.00 0.00 0.00 65 1019.2
20260503021514 62 101 0.0 0.0 0.00 0.00 0.00 64 1019.3
20260503021014 63 101 0.0 0.0 0.00 0.00 0.00 64 1019.2
20260503020514 63 101 0.0 0.0 0.00 0.00 0.00 63 1019.2
20260503020014 64 101 0.0 0.0 0.00 0.00 0.00 62 1019.3
20260503015514 64 101 0.0 0.0 0.00 0.00 0.00 61 1019.1
20260503015014 65 101 0.0 0.0 0.00 0.00 0.00 60 1019.1
20260503014514 66 101 0.0 0.0 0.00 0.00 0.00 59 1019.2
20260503014014 66 101 0.0 0.0 0.00 0.00 0.00 58 1019.1
20260503013514 67 101 0.0 0.0 0.00 0.00 0.00 57 1019.3
20260503013014 67 101 0.0 0.0 0.00 0.00 0.00 56 1019.3
20260503012514 68 101 0.0 0.0 0.00 0.00 0.00 55 1019.2
20260503011514 69 101 0.0 0.0 0.00 0.00 0.00 54 1019.0
20260503011014 70 101 0.0 0.0 0.00 0.00 0.00 53 1019.0
20260503010514 71 101 0.0 0.0 0.00 0.00 0.00 51 1019.0
20260503010014 72 101 0.0 0.0 0.00 0.00 0.00 50 1019.1
20260503005513 73 101 0.0 1.0 0.00 0.00 0.00 48 1019.0
20260503005013 73 101 0.0 1.0 0.00 0.00 0.00 47 1018.9
20260503004513 74 101 0.0 1.0 0.00 0.00 0.00 46 1018.9
20260503004014 74 103 0.0 1.0 0.00 0.00 0.00 45 1018.9
20260503003513 74 74 0.0 2.0 0.00 0.00 0.00 45 1018.8
20260503003013 75 98 1.0 2.0 0.00 0.00 0.00 44 1018.9
20260503002513 75 39 1.0 1.0 0.00 0.00 0.00 45 1018.9
20260503002013 75 107 0.0 1.0 0.00 0.00 0.00 44 1018.9
20260503000513 75 205 2.0 3.0 0.00 0.01 0.00 43 1018.7
20260502235513 76 88 0.0 2.0 0.00 0.01 0.00 43 1018.7
20260502234013 76 336 0.0 3.0 0.00 0.01 0.00 43 1018.6
20260502233513 76 100 1.0 4.0 0.00 0.01 0.00 43 1018.6